Change the Weather History Date:

Saturday, February 1, 2014

  Actual Average Record
Temperature  
Mean Temperature 25 °F 24 °F  
Max Temperature 31 °F 32 °F 48 °F (2012)
Min Temperature 19 °F 17 °F 0 °F (2013)
Degree Days  
Heating Degree Days 40 41  
Month to date heating degree days 40 41  
Since 1 July heating degree days 4072 3738  
Cooling Degree Days 0 0  
Month to date cooling degree days 0 0  
Year to date cooling degree days 0 0  
Moisture  
Dew Point 22 °F    
Average Humidity 86    
Maximum Humidity 93    
Minimum Humidity 80    
Precipitation  
Precipitation 0.01 in 0.03 in 0.70 in (2011)
Month to date precipitation 0.01 0.03  
Year to date precipitation 1.22 1.66  
Sea Level Pressure  
Sea Level Pressure 29.97 in    
Wind  
Wind Speed 6 mph (North)    
Max Wind Speed 13 mph    
Max Gust Speed 17 mph    
Visibility 4 miles    
Events Fog , Snow    
T = Trace of Precipitation, MM = Missing Value Source: NWS Daily Summary

Daily Weather History Graph

Daily Weather History Graph

Search for Another Location

Airport or City:

Trip Planner

Search our weather history database for the weather conditions in past years. The results will help you decide how hot, cold, wet, or windy it might be!

Date:

Astronomy

Feb. 01, 2014 Rise Set
Actual Time 7:04 AM CST 5:06 PM CST
Civil Twilight 6:34 AM CST 5:35 PM CST
Nautical Twilight 6:01 AM CST 6:09 PM CST
Astronomical Twilight 5:28 AM CST 6:42 PM CST
Moon 7:51 AM CST (2/1) 7:44 PM CST (2/1)
Length of Visible Light 11h 01m
Length of Day
10h 01m
Waxing Crescent, 5% of the Moon is Illuminated
Feb 1
Waxing Crescent
Feb 6
First Quarter
Feb 14
Full
Feb 22
Last Quarter
Mar 1
New

Hourly Weather History & Observations

Time (CST) Temp. Windchill Dew Point Humidity Pressure Visibility Wind Dir Wind Speed Gust Speed Precip Events Conditions
12:52 AM 19.9 °F 14.9 °F 15.1 °F 81% 30.11 in - North 3.5 mph - 0.00 in Snow Light Snow
1:52 AM 21.0 °F 16.2 °F 16.0 °F 81% 30.08 in - NNE 3.5 mph - 0.00 in Snow Light Snow
2:07 AM 21.2 °F - 17.6 °F 86% 30.04 in - Calm Calm - 0.00 in   Overcast
2:25 AM 21.2 °F - 17.6 °F 86% 30.03 in - Calm Calm - 0.00 in   Overcast
2:52 AM 21.9 °F 17.2 °F 18.0 °F 85% 30.06 in - North 3.5 mph - 0.00 in Snow Light Snow
3:39 AM 21.2 °F 16.4 °F 17.6 °F 86% 30.01 in - NNE 3.5 mph - 0.00 in Snow Light Snow
3:48 AM 21.2 °F 16.4 °F 17.6 °F 86% 30.00 in - NNE 3.5 mph - 0.00 in Snow Light Snow
3:52 AM 21.9 °F 15.7 °F 18.0 °F 85% 30.03 in - NNE 4.6 mph - 0.00 in Snow Light Snow
4:52 AM 23.0 °F 18.4 °F 19.9 °F 88% 30.04 in - North 3.5 mph - 0.00 in Snow Light Snow
5:00 AM 23.0 °F 17.0 °F 19.4 °F 86% 30.00 in - North 4.6 mph - 0.00 in Snow Snow
5:12 AM 23.0 °F 15.8 °F 19.4 °F 86% 30.00 in - North 5.8 mph - 0.00 in Snow Snow
5:52 AM 23.0 °F 17.0 °F 19.9 °F 88% 30.01 in - NNE 4.6 mph - 0.00 in Snow Snow
6:52 AM 24.1 °F 17.0 °F 21.0 °F 88% 29.99 in 0.8 mi North 5.8 mph - 0.00 in Snow Light Snow
7:14 AM 24.8 °F 19.1 °F 21.2 °F 86% 29.97 in 0.8 mi North 4.6 mph - 0.00 in Snow Light Snow
7:26 AM 24.8 °F 19.1 °F 21.2 °F 86% 29.96 in 0.5 mi North 4.6 mph - 0.00 in Fog , Snow Snow
7:52 AM 26.1 °F - 24.1 °F 92% 29.99 in 0.5 mi Calm Calm - 0.00 in Fog , Snow Snow
8:14 AM 26.6 °F 22.6 °F 24.8 °F 93% 29.95 in 0.8 mi North 3.5 mph - 0.00 in Snow Light Snow
8:39 AM 26.6 °F 22.6 °F 23.0 °F 86% 29.94 in 0.8 mi North 3.5 mph - 0.00 in Snow Light Snow
8:52 AM 27.0 °F 23.0 °F 25.0 °F 92% 29.96 in 0.8 mi NNE 3.5 mph - 0.00 in Snow Light Snow
9:02 AM 28.4 °F 22.2 °F 26.6 °F 93% 29.91 in 0.8 mi NE 5.8 mph - 0.00 in Snow Light Snow
9:14 AM 28.4 °F 20.4 °F 26.6 °F 93% 29.90 in 0.8 mi NNE 8.1 mph - 0.00 in Snow Light Snow
9:23 AM 30.2 °F 22.6 °F 26.6 °F 86% 29.91 in 1.2 mi NNE 8.1 mph - 0.00 in Snow Light Snow
9:37 AM 30.2 °F 21.3 °F 26.6 °F 86% 29.91 in 2.5 mi NE 10.4 mph - 0.00 in Snow Light Snow
9:52 AM 30.0 °F 23.2 °F 27.0 °F 88% 29.95 in 5.0 mi NE 6.9 mph - 0.00 in   Overcast
10:52 AM 30.0 °F 21.7 °F 27.0 °F 88% 29.92 in 5.0 mi NE 9.2 mph 17.3 mph N/A   Overcast
11:12 AM 30.2 °F 22.6 °F 26.6 °F 86% 29.89 in 1.8 mi NNE 8.1 mph - 0.00 in Snow Light Snow
11:24 AM 30.2 °F 22.6 °F 26.6 °F 86% 29.90 in 1.0 mi North 8.1 mph - 0.00 in Snow Light Snow
11:52 AM 30.0 °F 21.7 °F 27.0 °F 88% 29.92 in 1.0 mi North 9.2 mph - 0.00 in Snow Light Snow
12:07 PM 30.2 °F 22.6 °F 26.6 °F 86% 29.87 in 1.2 mi NNE 8.1 mph - 0.00 in Snow Light Snow
12:31 PM 30.2 °F 21.9 °F 26.6 °F 86% 29.88 in 2.5 mi North 9.2 mph - 0.00 in Snow Light Snow
12:41 PM 30.2 °F 22.6 °F 26.6 °F 86% 29.87 in 2.5 mi NNE 8.1 mph - 0.00 in Snow Light Snow
12:50 PM 30.2 °F 21.9 °F 26.6 °F 86% 29.87 in 3.0 mi NNE 9.2 mph - 0.00 in Snow Light Snow
12:52 PM 30.0 °F 23.2 °F 26.1 °F 85% 29.90 in 4.0 mi NNE 6.9 mph - 0.00 in Snow Light Snow
1:11 PM 30.2 °F 21.3 °F 26.6 °F 86% 29.86 in 8.0 mi North 10.4 mph - N/A   Overcast
1:26 PM 30.2 °F 21.9 °F 26.6 °F 86% 29.86 in 7.0 mi North 9.2 mph - N/A   Overcast
1:52 PM 30.0 °F 21.1 °F 26.1 °F 85% 29.88 in 4.0 mi North 10.4 mph - 0.00 in Snow Light Snow
2:52 PM 30.0 °F 21.1 °F 25.0 °F 82% 29.91 in 6.0 mi NNE 10.4 mph - 0.01 in   Haze
3:43 PM 28.4 °F 20.4 °F 24.8 °F 86% 29.91 in 2.5 mi North 8.1 mph - 0.00 in Snow Light Snow
3:52 PM 28.9 °F 21.9 °F 24.1 °F 82% 29.94 in 4.0 mi North 6.9 mph - 0.00 in Snow Light Snow
4:07 PM 28.4 °F 20.4 °F 24.8 °F 86% 29.92 in 2.0 mi NNW 8.1 mph - 0.00 in Snow Light Snow
4:20 PM 28.4 °F 21.2 °F 24.8 °F 86% 29.93 in 3.0 mi NNW 6.9 mph - 0.00 in Snow Light Snow
4:52 PM 27.0 °F 18.0 °F 21.9 °F 81% 29.97 in 9.0 mi North 9.2 mph - 0.00 in   Overcast
5:03 PM 26.6 °F 20.0 °F 21.2 °F 80% 29.95 in 10.0 mi North 5.8 mph - N/A   Overcast
5:52 PM 26.1 °F 19.4 °F 21.9 °F 84% 30.00 in 10.0 mi NNW 5.8 mph - N/A   Mostly Cloudy
6:52 PM 25.0 °F 20.7 °F 21.0 °F 85% 30.03 in 9.0 mi North 3.5 mph - 0.00 in   Partly Cloudy
7:52 PM 24.1 °F 17.0 °F 19.9 °F 84% 30.06 in - NW 5.8 mph - N/A   Clear
8:52 PM 23.0 °F 13.1 °F 19.0 °F 85% 30.08 in 7.0 mi NNW 9.2 mph - N/A   Clear
9:52 PM 21.0 °F 13.4 °F 17.1 °F 85% 30.09 in - NNW 5.8 mph - N/A   Clear
10:52 PM 19.9 °F 13.4 °F 15.1 °F 81% 30.10 in - NW 4.6 mph - N/A   Clear
11:52 PM 19.0 °F 11.1 °F 14.0 °F 81% 30.12 in - NNW 5.8 mph - N/A   Mostly Cloudy